RZO160 LPPD-LPMA

Flight info

Callsign RZO160
Flight time 1h 20m
Altitude 35000
Route GIRIX DCT ETROX DCT 35N020W DCT IRKID/N0434F350 DCT IBBAN
Aircraft A320/M-SDE3FGHIRWY/LB1

Departure

Time 2026-05-03 21:34
Airport João Paulo II Airport (LPPD)

Arrival

Time 2026-05-03 22:54
Airport Cristiano Ronaldo International Airport (LPMA)
Time Latitude Longitude Altitude Speed Heading
2026-05-03 21:09 37.74894 -25.71169 271 ft 0 kts 22°
2026-05-03 21:28 37.74885 -25.71174 271 ft 4 kts 22°
2026-05-03 21:28 37.74860 -25.71187 274 ft 4 kts 22°
2026-05-03 21:28 37.74842 -25.71197 277 ft 4 kts 49°
2026-05-03 21:28 37.74837 -25.71221 273 ft 3 kts 111°
2026-05-03 21:29 37.74844 -25.71241 274 ft 0 kts 111°
2026-05-03 21:31 37.74843 -25.71240 274 ft 1 kts 111°
2026-05-03 21:31 37.74836 -25.71216 273 ft 5 kts 111°
2026-05-03 21:31 37.74818 -25.71160 274 ft 8 kts 112°
2026-05-03 21:31 37.74796 -25.71090 271 ft 9 kts 112°
2026-05-03 21:32 37.74762 -25.71027 271 ft 8 kts 153°
2026-05-03 21:32 37.74710 -25.71022 273 ft 7 kts 179°
2026-05-03 21:32 37.74657 -25.71049 271 ft 10 kts 231°
2026-05-03 21:32 37.74610 -25.71059 272 ft 5 kts 130°
2026-05-03 21:33 37.74606 -25.71045 274 ft 0 kts 114°
2026-05-03 21:33 37.74539 -25.70836 270 ft 64 kts 110°
2026-05-03 21:33 37.74281 -25.70027 239 ft 131 kts 111°
2026-05-03 21:33 37.73911 -25.68811 558 ft 151 kts 113°
2026-05-03 21:34 37.73402 -25.67644 1279 ft 158 kts 131°
2026-05-03 21:34 37.72521 -25.66763 1931 ft 166 kts 141°
2026-05-03 21:34 37.71497 -25.65903 2159 ft 190 kts 142°
2026-05-03 21:34 37.70317 -25.64939 2397 ft 214 kts 143°
2026-05-03 21:35 37.68982 -25.63842 2603 ft 243 kts 142°
2026-05-03 21:35 37.67545 -25.62631 3250 ft 253 kts 141°
2026-05-03 21:35 37.66072 -25.61365 4085 ft 257 kts 141°
2026-05-03 21:35 37.64732 -25.59904 4989 ft 255 kts 130°
2026-05-03 21:36 37.63490 -25.58301 5847 ft 257 kts 130°
2026-05-03 21:36 37.62245 -25.56694 6645 ft 261 kts 130°
2026-05-03 21:36 37.60968 -25.55044 7389 ft 265 kts 130°
2026-05-03 21:36 37.59664 -25.53359 8076 ft 272 kts 131°
2026-05-03 21:37 37.58331 -25.51641 8777 ft 277 kts 131°
2026-05-03 21:37 37.56968 -25.49886 9523 ft 281 kts 131°
2026-05-03 21:37 37.55596 -25.48116 10265 ft 284 kts 132°
2026-05-03 21:37 37.54170 -25.46268 10582 ft 304 kts 131°
2026-05-03 21:38 37.52641 -25.44284 10758 ft 326 kts 133°
2026-05-03 21:38 37.51031 -25.42199 11231 ft 336 kts 133°
2026-05-03 21:38 37.49408 -25.40105 11873 ft 340 kts 133°
2026-05-03 21:38 37.47745 -25.37967 12541 ft 344 kts 133°
2026-05-03 21:39 37.46067 -25.35812 13209 ft 347 kts 132°
2026-05-03 21:39 37.44369 -25.33629 13911 ft 349 kts 133°
2026-05-03 21:39 37.42656 -25.31426 14492 ft 353 kts 133°
2026-05-03 21:39 37.40931 -25.29212 15103 ft 355 kts 133°
2026-05-03 21:40 37.39191 -25.26985 15665 ft 359 kts 133°
2026-05-03 21:40 37.37430 -25.24726 16205 ft 363 kts 133°
2026-05-03 21:40 37.35657 -25.22449 16767 ft 366 kts 133°
2026-05-03 21:40 37.33858 -25.20145 17318 ft 370 kts 133°
2026-05-03 21:41 37.32047 -25.17829 17902 ft 372 kts 133°
2026-05-03 21:41 37.30221 -25.15495 18451 ft 376 kts 133°
2026-05-03 21:41 37.28381 -25.13140 18933 ft 379 kts 133°
2026-05-03 21:41 37.26528 -25.10768 19384 ft 383 kts 134°
2026-05-03 21:42 37.24652 -25.08369 19839 ft 387 kts 134°
2026-05-03 21:42 37.22752 -25.05945 20295 ft 391 kts 134°
2026-05-03 21:42 37.20834 -25.03504 20728 ft 395 kts 134°
2026-05-03 21:42 37.18893 -25.01032 21180 ft 399 kts 134°
2026-05-03 21:43 37.16943 -24.98547 21683 ft 401 kts 134°
2026-05-03 21:43 37.14996 -24.96072 22139 ft 405 kts 135°
2026-05-03 21:43 37.12988 -24.93524 22544 ft 410 kts 135°
2026-05-03 21:43 37.10970 -24.90957 22974 ft 414 kts 135°
2026-05-03 21:44 37.08964 -24.88410 23359 ft 418 kts 135°
2026-05-03 21:44 37.06917 -24.85813 23775 ft 421 kts 135°
2026-05-03 21:44 37.04844 -24.83187 24146 ft 424 kts 135°
2026-05-03 21:44 37.02758 -24.80549 24449 ft 428 kts 135°
2026-05-03 21:45 37.00655 -24.77894 24834 ft 430 kts 135°
2026-05-03 21:45 36.98546 -24.75235 25190 ft 432 kts 135°
2026-05-03 21:45 36.96425 -24.72563 25528 ft 434 kts 135°
2026-05-03 21:45 36.94291 -24.69876 25874 ft 436 kts 135°
2026-05-03 21:46 36.92154 -24.67180 26237 ft 437 kts 135°
2026-05-03 21:46 36.90004 -24.64465 26535 ft 440 kts 136°
2026-05-03 21:46 36.87843 -24.61734 26799 ft 444 kts 136°
2026-05-03 21:46 36.85656 -24.58981 27055 ft 447 kts 136°
2026-05-03 21:47 36.84197 -24.57150 27258 ft 449 kts 136°
2026-05-03 21:47 36.81992 -24.54390 27573 ft 451 kts 136°
2026-05-03 21:47 36.79768 -24.51609 27871 ft 453 kts 136°
2026-05-03 21:47 36.77545 -24.48827 28202 ft 454 kts 136°
2026-05-03 21:48 36.75312 -24.46029 28501 ft 456 kts 136°
2026-05-03 21:48 36.73063 -24.43213 28787 ft 458 kts 136°
2026-05-03 21:48 36.70807 -24.40392 29042 ft 461 kts 136°
2026-05-03 21:48 36.68539 -24.37561 29300 ft 462 kts 136°
2026-05-03 21:49 36.66260 -24.34715 29593 ft 464 kts 136°
2026-05-03 21:49 36.64010 -24.31908 29861 ft 465 kts 136°
2026-05-03 21:49 36.61715 -24.29049 30110 ft 467 kts 136°
2026-05-03 21:49 36.59412 -24.26189 30346 ft 469 kts 136°
2026-05-03 21:50 36.57096 -24.23318 30546 ft 471 kts 136°
2026-05-03 21:50 36.54766 -24.20431 30702 ft 473 kts 137°
2026-05-03 21:50 36.52425 -24.17528 30870 ft 475 kts 137°
2026-05-03 21:50 36.50082 -24.14618 31080 ft 476 kts 137°
2026-05-03 21:51 36.47735 -24.11704 31341 ft 476 kts 137°
2026-05-03 21:51 36.45390 -24.08799 31591 ft 476 kts 137°
2026-05-03 21:51 36.43050 -24.05883 31830 ft 477 kts 135°
2026-05-03 21:51 36.40971 -24.02728 32085 ft 479 kts 126°
2026-05-03 21:52 36.39261 -23.99179 32322 ft 480 kts 117°
2026-05-03 21:52 36.37941 -23.95364 32504 ft 483 kts 112°
2026-05-03 21:52 36.36686 -23.91500 32711 ft 484 kts 113°
2026-05-03 21:52 36.35420 -23.87630 32940 ft 484 kts 113°
2026-05-03 21:53 36.34149 -23.83762 33164 ft 484 kts 113°
2026-05-03 21:53 36.32875 -23.79894 33413 ft 485 kts 113°
2026-05-03 21:53 36.31600 -23.76027 33651 ft 485 kts 113°
2026-05-03 21:53 36.30325 -23.72152 33881 ft 485 kts 113°
2026-05-03 21:54 36.29048 -23.68278 34106 ft 486 kts 114°
2026-05-03 21:54 36.27769 -23.64400 34314 ft 486 kts 114°
2026-05-03 21:54 36.26485 -23.60508 34525 ft 486 kts 114°
2026-05-03 21:54 36.25203 -23.56626 34740 ft 486 kts 114°
2026-05-03 21:55 36.23921 -23.52757 34926 ft 486 kts 114°
2026-05-03 21:55 36.22633 -23.48883 35131 ft 486 kts 114°
2026-05-03 21:55 36.20059 -23.41146 35241 ft 489 kts 114°
2026-05-03 21:56 36.17455 -23.33340 35233 ft 497 kts 114°
2026-05-03 21:56 36.14805 -23.25392 35232 ft 501 kts 114°
2026-05-03 21:57 36.12142 -23.17413 35229 ft 502 kts 114°
2026-05-03 21:57 36.09460 -23.09438 35238 ft 502 kts 114°
2026-05-03 21:58 36.06777 -23.01471 35224 ft 502 kts 114°
2026-05-03 21:58 36.04083 -22.93499 35234 ft 503 kts 114°
2026-05-03 21:59 36.01385 -22.85530 35231 ft 503 kts 114°
2026-05-03 21:59 35.98687 -22.77554 35235 ft 503 kts 114°
2026-05-03 22:00 35.95974 -22.69586 35217 ft 503 kts 115°
2026-05-03 22:00 35.93272 -22.61675 35219 ft 503 kts 114°
2026-05-03 22:01 35.90551 -22.53706 35230 ft 504 kts 115°
2026-05-03 22:01 35.87823 -22.45752 35229 ft 504 kts 115°
2026-05-03 22:02 35.85081 -22.37788 35233 ft 504 kts 115°
2026-05-03 22:02 35.82339 -22.29837 35231 ft 504 kts 115°
2026-05-03 22:03 35.79595 -22.21891 35218 ft 504 kts 115°
2026-05-03 22:03 35.76846 -22.13942 35223 ft 504 kts 115°
2026-05-03 22:04 35.74101 -22.06061 35230 ft 504 kts 115°
2026-05-03 22:04 35.71330 -21.98132 35230 ft 504 kts 115°
2026-05-03 22:05 35.68568 -21.90207 35228 ft 504 kts 115°
2026-05-03 22:05 35.65803 -21.82284 35212 ft 504 kts 115°
2026-05-03 22:06 35.63031 -21.74379 35223 ft 504 kts 115°
2026-05-03 22:06 35.60247 -21.66474 35223 ft 504 kts 115°
2026-05-03 22:07 35.57468 -21.58632 35222 ft 504 kts 115°
2026-05-03 22:07 35.54675 -21.50737 35222 ft 504 kts 115°
2026-05-03 22:08 35.51883 -21.42843 35227 ft 504 kts 115°
2026-05-03 22:08 35.49079 -21.34961 35209 ft 504 kts 116°
2026-05-03 22:09 35.46273 -21.27079 35216 ft 504 kts 116°
2026-05-03 22:10 35.42056 -21.15274 35213 ft 504 kts 116°
2026-05-03 22:10 35.39235 -21.07411 35228 ft 504 kts 116°
2026-05-03 22:11 35.36405 -20.99543 35218 ft 504 kts 116°
2026-05-03 22:11 35.33578 -20.91697 35201 ft 504 kts 116°
2026-05-03 22:12 35.30758 -20.83907 35216 ft 503 kts 116°
2026-05-03 22:12 35.27915 -20.76066 35222 ft 504 kts 116°
2026-05-03 22:13 35.25070 -20.68220 35217 ft 504 kts 116°
2026-05-03 22:13 35.22217 -20.60381 35210 ft 504 kts 116°
2026-05-03 22:14 35.19365 -20.52555 35191 ft 504 kts 116°
2026-05-03 22:14 35.16514 -20.44739 35208 ft 503 kts 116°
2026-05-03 22:15 35.13643 -20.36920 35208 ft 503 kts 117°
2026-05-03 22:15 35.10790 -20.29175 35205 ft 503 kts 117°
2026-05-03 22:16 35.07921 -20.21385 35210 ft 503 kts 117°
2026-05-03 22:16 35.05043 -20.13606 35224 ft 503 kts 117°
2026-05-03 22:17 35.02160 -20.05831 35190 ft 503 kts 117°
2026-05-03 22:17 34.99044 -19.98226 35206 ft 498 kts 127°
2026-05-03 22:18 34.95214 -19.91184 35206 ft 497 kts 127°
2026-05-03 22:18 34.91393 -19.84160 35206 ft 497 kts 127°
2026-05-03 22:19 34.87571 -19.77130 35204 ft 498 kts 127°
2026-05-03 22:19 34.83744 -19.70116 35186 ft 497 kts 127°
2026-05-03 22:20 34.79908 -19.63114 35191 ft 497 kts 127°
2026-05-03 22:20 34.76067 -19.56117 35194 ft 497 kts 127°
2026-05-03 22:21 34.72236 -19.49136 35195 ft 496 kts 127°
2026-05-03 22:21 34.68407 -19.42153 35198 ft 497 kts 127°
2026-05-03 22:22 34.64571 -19.35185 35179 ft 496 kts 127°
2026-05-03 22:22 34.60725 -19.28231 35190 ft 495 kts 127°
2026-05-03 22:23 34.56906 -19.21344 35192 ft 495 kts 127°
2026-05-03 22:23 34.53056 -19.14403 35193 ft 495 kts 127°
2026-05-03 22:24 34.49227 -19.07503 35191 ft 495 kts 127°
2026-05-03 22:24 34.45375 -19.00576 35186 ft 495 kts 128°
2026-05-03 22:25 34.41511 -18.93659 35180 ft 495 kts 128°
2026-05-03 22:25 34.37646 -18.86752 35179 ft 495 kts 128°
2026-05-03 22:26 34.33779 -18.79840 35174 ft 495 kts 128°
2026-05-03 22:26 34.29921 -18.72942 35176 ft 495 kts 128°
2026-05-03 22:27 34.26048 -18.66055 35162 ft 495 kts 128°
2026-05-03 22:27 34.22181 -18.59184 35174 ft 494 kts 128°
2026-05-03 22:28 34.18323 -18.52355 35177 ft 494 kts 128°
2026-05-03 22:28 34.14445 -18.45500 35175 ft 494 kts 128°
2026-05-03 22:29 34.10563 -18.38645 35168 ft 495 kts 128°
2026-05-03 22:29 34.06669 -18.31785 35138 ft 495 kts 128°
2026-05-03 22:30 34.02772 -18.24927 35140 ft 496 kts 128°
2026-05-03 22:30 33.98877 -18.18083 35173 ft 494 kts 128°
2026-05-03 22:31 33.94983 -18.11259 34965 ft 493 kts 128°
2026-05-03 22:31 33.93061 -18.07893 34693 ft 483 kts 129°
2026-05-03 22:31 33.91156 -18.04611 34451 ft 472 kts 130°
2026-05-03 22:31 33.89238 -18.01444 33914 ft 468 kts 131°
2026-05-03 22:32 33.87289 -17.98326 33412 ft 463 kts 132°
2026-05-03 22:32 33.85343 -17.95261 32894 ft 459 kts 133°
2026-05-03 22:32 33.83412 -17.92234 32396 ft 456 kts 132°
2026-05-03 22:32 33.81486 -17.89205 31890 ft 453 kts 132°
2026-05-03 22:33 33.79589 -17.86187 31395 ft 450 kts 131°
2026-05-03 22:33 33.77718 -17.83184 30899 ft 448 kts 131°
2026-05-03 22:33 33.75868 -17.80207 30417 ft 445 kts 131°
2026-05-03 22:33 33.74016 -17.77223 29889 ft 443 kts 131°
2026-05-03 22:34 33.72182 -17.74273 29422 ft 438 kts 131°
2026-05-03 22:34 33.70386 -17.71396 28948 ft 435 kts 131°
2026-05-03 22:34 33.69163 -17.69441 28474 ft 435 kts 131°
2026-05-03 22:34 33.67315 -17.66506 27486 ft 445 kts 131°
2026-05-03 22:35 33.65439 -17.63533 26845 ft 445 kts 131°
2026-05-03 22:35 33.62982 -17.59626 26064 ft 443 kts 131°
2026-05-03 22:35 33.61730 -17.57632 25616 ft 444 kts 130°
2026-05-03 22:35 33.59292 -17.53744 24783 ft 432 kts 130°
2026-05-03 22:36 33.58085 -17.51818 24375 ft 425 kts 130°
2026-05-03 22:36 33.56321 -17.49006 23654 ft 419 kts 130°
2026-05-03 22:36 33.54579 -17.46234 23044 ft 412 kts 130°
2026-05-03 22:36 33.52852 -17.43493 22544 ft 412 kts 130°
2026-05-03 22:37 33.51144 -17.40791 22034 ft 411 kts 130°
2026-05-03 22:37 33.49404 -17.38040 21700 ft 404 kts 130°
2026-05-03 22:37 33.47723 -17.35383 21060 ft 407 kts 130°
2026-05-03 22:37 33.46035 -17.32712 20831 ft 398 kts 130°
2026-05-03 22:38 33.44384 -17.30100 20239 ft 389 kts 130°
2026-05-03 22:38 33.42757 -17.27535 19548 ft 384 kts 130°
2026-05-03 22:38 33.41147 -17.24997 19001 ft 381 kts 130°
2026-05-03 22:38 33.39552 -17.22482 18484 ft 377 kts 129°
2026-05-03 22:39 33.37975 -17.19994 17908 ft 373 kts 129°
2026-05-03 22:39 33.36410 -17.17527 17437 ft 371 kts 129°
2026-05-03 22:39 33.34850 -17.15076 17022 ft 369 kts 129°
2026-05-03 22:39 33.33300 -17.12644 16593 ft 367 kts 129°
2026-05-03 22:40 33.31749 -17.10214 16165 ft 366 kts 129°
2026-05-03 22:40 33.30207 -17.07802 15746 ft 364 kts 129°
2026-05-03 22:40 33.28673 -17.05402 15332 ft 363 kts 129°
2026-05-03 22:40 33.27149 -17.03011 14922 ft 361 kts 129°
2026-05-03 22:41 33.25626 -17.00619 14533 ft 359 kts 129°
2026-05-03 22:41 33.24115 -16.98250 14161 ft 357 kts 129°
2026-05-03 22:41 33.22614 -16.95901 13763 ft 354 kts 129°
2026-05-03 22:41 33.21121 -16.93567 13344 ft 350 kts 129°
2026-05-03 22:42 33.19676 -16.91303 12924 ft 337 kts 129°
2026-05-03 22:42 33.18282 -16.89117 12514 ft 325 kts 129°
2026-05-03 22:42 33.16931 -16.87008 12124 ft 317 kts 129°
2026-05-03 22:42 33.15593 -16.84929 11726 ft 314 kts 129°
2026-05-03 22:43 33.14259 -16.82856 11308 ft 315 kts 129°
2026-05-03 22:43 33.12834 -16.80920 10821 ft 312 kts 143°
2026-05-03 22:43 33.11087 -16.79457 10324 ft 304 kts 149°
2026-05-03 22:43 33.09342 -16.78065 9808 ft 300 kts 149°
2026-05-03 22:44 33.07594 -16.76677 9258 ft 297 kts 149°
2026-05-03 22:44 33.05881 -16.75318 8715 ft 294 kts 148°
2026-05-03 22:44 33.04190 -16.73978 8201 ft 298 kts 148°
2026-05-03 22:44 33.02457 -16.72606 7679 ft 300 kts 148°
2026-05-03 22:45 33.00708 -16.71222 7165 ft 303 kts 148°
2026-05-03 22:45 32.98941 -16.69824 6656 ft 305 kts 148°
2026-05-03 22:45 32.97189 -16.68439 6282 ft 300 kts 148°
2026-05-03 22:45 32.95463 -16.67073 5920 ft 296 kts 148°
2026-05-03 22:46 32.93783 -16.65743 5563 ft 283 kts 148°
2026-05-03 22:46 32.92186 -16.64478 5215 ft 268 kts 148°
2026-05-03 22:46 32.90673 -16.63281 4868 ft 255 kts 148°
2026-05-03 22:46 32.89239 -16.62148 4646 ft 241 kts 148°
2026-05-03 22:47 32.87841 -16.61056 4517 ft 240 kts 151°
2026-05-03 22:47 32.86292 -16.60355 4396 ft 239 kts 172°
2026-05-03 22:47 32.84634 -16.60364 4271 ft 239 kts 193°
2026-05-03 22:47 32.83088 -16.61034 3760 ft 243 kts 213°
2026-05-03 22:48 32.81722 -16.62167 3431 ft 235 kts 217°
2026-05-03 22:48 32.80409 -16.63266 3269 ft 226 kts 217°
2026-05-03 22:48 32.79152 -16.64311 3159 ft 215 kts 217°
2026-05-03 22:48 32.77956 -16.65298 3067 ft 204 kts 217°
2026-05-03 22:49 32.76828 -16.66230 2997 ft 192 kts 218°
2026-05-03 22:49 32.75730 -16.67137 2496 ft 193 kts 217°
2026-05-03 22:49 32.74625 -16.68051 1980 ft 193 kts 218°
2026-05-03 22:49 32.73532 -16.68956 1459 ft 189 kts 217°
2026-05-03 22:50 32.72498 -16.69808 1168 ft 173 kts 217°
2026-05-03 22:50 32.71547 -16.70593 952 ft 160 kts 217°
2026-05-03 22:50 32.70632 -16.71349 751 ft 160 kts 217°
2026-05-03 22:50 32.69748 -16.72086 662 ft 150 kts 219°
2026-05-03 22:51 32.68978 -16.72868 761 ft 144 kts 226°
2026-05-03 22:51 32.68339 -16.73763 908 ft 142 kts 235°
2026-05-03 22:51 32.67795 -16.74734 1000 ft 141 kts 237°
2026-05-03 22:51 32.67235 -16.75693 1036 ft 141 kts 234°
2026-05-03 22:52 32.66636 -16.76588 1127 ft 140 kts 230°
2026-05-03 22:52 32.66090 -16.77530 1178 ft 137 kts 242°
2026-05-03 22:52 32.66141 -16.78632 1285 ft 142 kts 297°
2026-05-03 22:52 32.66810 -16.79472 1055 ft 143 kts 329°
2026-05-03 22:53 32.67772 -16.79690 781 ft 145 kts
2026-05-03 22:53 32.68532 -16.78980 529 ft 144 kts 52°
2026-05-03 22:53 32.69226 -16.78112 192 ft 141 kts 42°
2026-05-03 22:53 32.69838 -16.77393 176 ft 100 kts 45°
2026-05-03 22:54 32.70192 -16.76971 176 ft 47 kts 47°
2026-05-03 22:54 32.70354 -16.76825 176 ft 17 kts 11°
2026-05-03 22:54 32.70391 -16.76753 176 ft 12 kts 141°
2026-05-03 22:54 32.70338 -16.76798 176 ft 14 kts 230°
2026-05-03 22:55 32.70222 -16.76939 176 ft 31 kts 225°
2026-05-03 22:55 32.70066 -16.77123 176 ft 29 kts 225°
2026-05-03 22:55 32.69937 -16.77177 176 ft 20 kts 182°
2026-05-03 22:55 32.69811 -16.77214 176 ft 19 kts 224°
2026-05-03 22:56 32.69715 -16.77330 176 ft 20 kts 226°
2026-05-03 22:56 32.69613 -16.77457 176 ft 22 kts 226°
2026-05-03 22:56 32.69507 -16.77590 176 ft 21 kts 226°
2026-05-03 22:56 32.69413 -16.77707 176 ft 17 kts 226°
2026-05-03 22:57 32.69370 -16.77735 176 ft 5 kts 160°
2026-05-03 22:57 32.69338 -16.77702 176 ft 1 kts 138°
2026-05-03 22:57 32.69335 -16.77699 176 ft 0 kts 138°
2026-05-03 22:57 32.69332 -16.77695 176 ft 0 kts 137°